Regional Weather Roundup
Issued by NWS Grand Forks, ND

Home | Current Version | Previous Version | Graphics & Text | Print | Product List | Glossary On
Versions: 1 2 3 4 5 6 7 8 9 10 11 12 13 14 15 16 17 18 19 20 21 22 23 24 25 26 27 28 29 30 31 32 33 34 35 36 37 38 39 40 41 42 43 44 45 46 47 48 49 50
000
ASUS43 KFGF 291310
RWRFGF
PRAIRIE TO PINES  WEATHER ROUNDUP
NATIONAL WEATHER SERVICE EASTERN NORTH DAKOTA/GRAND FORKS ND
800 AM CDT SAT AUG 29 2015

 **SATELLITE DATA USED TO AUGMENT SKY COVER AT AUTOMATED STATIONS**
 *****  WEATHER ACROSS EASTERN NORTH DAKOTA  *****

CITY           SKY/WX    TMP DP  RH WIND       PRES   REMARKS
GRAND FORKS    SUNNY     63  62  97 S8        29.91R FOG
GRAND FRKS AFB FOG       63  63 100 S5        29.91S VSB 1/2
GRAND FRKS NWS   N/A     61 N/A N/A S7          N/A
DEVILS LAKE    SUNNY     64  59  82 S5        29.91R
FARGO          SUNNY     63  59  87 S13       29.96R
WAHPETON ARPT  SUNNY     59  55  88 S10       29.99S
$$

 ***** WEATHER ACROSS CENTRAL AND WESTERN NORTH DAKOTA  *****

CITY           SKY/WX    TMP DP  RH WIND       PRES   REMARKS
BISMARCK       CLOUDY    54  54 100 S3        29.95S FOG
MINOT          MOCLDY    61  51  70 SW10      29.91R HAZE
JAMESTOWN      SUNNY     63  61  93 S6        29.94S FOG
MINOT AFB      PTCLDY    58  55  90 CALM      29.89S
GARRISON         N/A     55  52  89 CALM      29.94R
WILLISTON      MOCLDY    55  51  86 SW3       29.92R FOG
DICKINSON      CLOUDY    60  43  53 S6        29.97R HAZE
HETTINGER      CLOUDY    51  45  79 CALM      30.01F HAZE
$$

 *****  OTHER AIRPORT OBSERVATIONS IN OUR AREA  *****

CITY           SKY/WX    TMP DP  RH WIND       PRES   REMARKS
WALHALLA       FOG       63  63 100 MISG      29.91S VSB<1/4
GRAFTON AIRPOR FOG       63  63 100 S5        29.91R VSB<1/4
VALLEY CITY AR FAIR      63  63 100 SW10      29.95S
CANDO          NOT AVBL
CAVALIER APRT  FOG       63  63 100 CALM      29.91R VSB 1/4
GWINNER          N/A     63  63 100 S15       29.98R
SHEYENNE NWR     N/A     64  63  95 S7        29.95S
ROLLA          FOG       57  57 100 S5        29.93S VSB 1/2
 ***** THE ABOVE OBSERVATIONS ARE NON NWS ARE NOT QUALITY
       CONTROLLED AND MAY MIS-REPORT RAIN FOR SNOW...
$$

  *****  WEATHER ACROSS NORTHERN MINNESOTA  *****

CITY           SKY/WX    TMP DP  RH WIND       PRES   REMARKS
FLAG ISLAND    FOG       63  63 100 CALM      29.94R VSB<1/4
WARROAD        FOG       64  61  88 CALM      29.95S VSB<1/4
ROSEAU         CLOUDY    66  61  82 S5        29.94S HAZE
HALLOCK        FOG       66  64  94 S9        29.91R VSB<1/4
THF RVR FALLS  SUNNY    N/A N/A N/A S8        29.94R
BAUDETTE       PTSUNNY   62  61  96 CALM      29.96R
WASKISH        CLOUDY    64  63  94 S5        29.97S
CROOKSTON      SUNNY     63  61  94 S12       29.94S
STEPHEN NDAWN    N/A     64  64 100 S8          N/A
GREENBUSH NDAW   N/A     64  64 100 S6          N/A
$$
  *****  WEATHER ACROSS CENTRAL AND WEST MINNESOTA  *****

CITY           SKY/WX    TMP DP  RH WIND       PRES   REMARKS
FOSSTON        SUNNY     63  59  88 S9        29.97S
BEMIDJI        SUNNY     61  59  94 S5        29.99S
PARK RAPIDS    SUNNY     60  57  89 S8        30.01S
ELBOW LAKE     FAIR      58  56  93 SE9       30.02R
WADENA         SUNNY     55  55 100 S5        30.03S
DETROIT LAKES  SUNNY     61  59  94 S8        30.01R
MOORHEAD       SUNNY     61  59  94 S10       29.98R
FERGUS FALLS   SUNNY     59  59 100 S9        30.01R
MORRIS MN      SUNNY     57  55  94 SE9       30.03R
STAPLES        PTSUNNY   57  55  94 S7        30.04R
$$
  *****  WEATHER ELSEWHERE ACROSS MINNESOTA  *****

CITY           SKY/WX    TMP DP  RH WIND       PRES   REMARKS
DULUTH         CLOUDY    59  56  89 W9        30.04R
INTRNTL FALLS  CLOUDY    65  62  90 SW6       29.98R
ELY            CLOUDY    61  57  88 W7        30.01R
CLOQUET        CLOUDY    59  55  88 SW6       30.05R
WHEATON        SUNNY     57  55  94 SE7       30.03R
BRAINERD       CLOUDY    58  56  93 S8        30.05R
HIBBING        CLOUDY    61  57  87 VRB3      30.03R
ALEXANDRIA     CLOUDY    60  57  89 S13       30.06R
SAINT CLOUD    PTSUNNY   56  55  97 SE5       30.07R FOG
MINNEAPOLIS    CLOUDY    57  55  93 SE6       30.08R FOG
$$

  *****  WEATHER ACROSS SOUTH DAKOTA  *****

CITY           SKY/WX    TMP DP  RH WIND       PRES   REMARKS
SIOUX FALLS    SUNNY     55  54  96 CALM      30.08R
BROOKINGS      MOSUNNY   54  50  87 SE5       30.08R VSB 1/2
WATERTOWN      SUNNY     56  55  97 S7        30.05R
HURON          SUNNY     59  57  93 S7        30.03R
SISSETON         N/A     59  58  96 S5        29.99R
ABERDEEN       SUNNY     60  58  92 S12       29.99R
MITCHELL       SUNNY     59  58  96 S6        30.06R
PIERRE         MOCLDY    62  60  93 S6        29.98S
MOBRIDGE       MOCLDY    60  59  96 CALM      29.96R FOG
RAPID CITY     LGT RAIN  57  53  86 CALM      30.06R
$$

  *****  SOME WEATHER IN NEARBY STATES *****

CITY           SKY/WX    TMP DP  RH WIND       PRES   REMARKS
GLASGOW MT     CLOUDY    65  45  48 SE7       29.88S HAZE
GREAT FALLS MT MOCLDY    68  39  34 S9        29.93S HAZE
CHEYENNE WY    CLEAR     52  44  74 W6        30.29R
SCOTTSBLUFF NE CLEAR     53  49  86 SE3       30.17S
OMAHA NE       DRIZZLE   61  60  97 N8        30.06R
DES MOINES IA  CLOUDY    64  61  90 N8        30.00R
DAVENPORT IA   CLOUDY    67  64  90 SW3       29.98R
CHICAGO IL     LGT RAIN  64  62  93 E8        30.05R FOG
EAU CLAIRE WI  CLOUDY    57  55  93 E5        30.07S
LA CROSSE WI   CLOUDY    62  58  86 CALM      30.04S
$$

  *****  SOME NATIONAL WEATHER *****

CITY           SKY/WX    TMP DP  RH WIND       PRES   REMARKS
LA GUARDIA NY  MOSUNNY   75  55  49 CALM      30.21S
RALEIGH NC     PTSUNNY   72  64  76 CALM      30.24S
ATLANTA GA     PTSUNNY   73  68  84 E6        30.20R
NEW ORLEANS LA PTSUNNY   79  69  71 SE5       30.05R
OKLAHOMA CITY  PTSUNNY   68  66  93 S5        30.00R
ALBUQUERQUE NM PTCLDY    67  51  56 N8        30.29R
SALT LAKE CITY MOCLDY    76  40  27 SE20      30.05R
LOS ANGELES CA CLEAR     71  65  81 CALM      29.87R
BOISE ID       CLOUDY    76  41  28 CALM      29.81R
SEATTLE WA     HVY RAIN  61  59  94 SW12      29.61R FOG
$$

*** WEATHER ACROSS MANITOBA...SASKATCHEWAN AND ONTARIO ***
                ***ONTARIO***

CITY           SKY/WX    TMP DP  RH WIND       PRES   REMARKS
GERALDTON      PTSUNNY   63  61  94 VRB2      29.94S FOG
THUNDER BAY    MOSUNNY   59  59 100 W3        29.96S
SIOUX LOOKOUT  FOG       63  63 100 VRB2      29.96R VSB 1/2
TORONTO        CLOUDY    66  59  77 SW5       30.15S
BIG TROUT LK   MOSUNNY   63  59  88 S8        29.80F
PICKLE LAKE    FOG       59  59 100 CALM      29.92R VSB 1/8
DRYDEN         FOG       61  61 100 SW6       29.96R VSB 1/4
KENORA         PTSUNNY   66  64  94 W2        29.96R
$$
                *** MANITOBA***

CITY           SKY/WX    TMP DP  RH WIND       PRES   REMARKS
BRANDON        FOG       61  61 100 E5        29.90R VSB 1/4
DAUPHIN        SUNNY     57  55  94 VRB2      29.82F
ISLAND LAKE    MOSUNNY   64  59  82 SW5       29.82S
PILOT MOUND      N/A     61  59  94 SE5         N/A
THE PAS        CLOUDY    63  55  77 SE7       29.70F
THOMPSON       PTSUNNY   54  52  94 CALM      29.71R
WINNIPEG       MOSUNNY   63  63 100 E2        29.91R
LYNN LAKE      MOCLDY    52  48  87 MISG      29.68S
CHURCHILL      FOG       54  54 100 NW8       29.63R VSB 1/8
$$
                ***SASKATCHEWAN***

CITY           SKY/WX    TMP DP  RH WIND       PRES   REMARKS
ESTEVAN        CLOUDY    59  54  82 S6        29.89R SMOKE
KINDERSLEY     PTCLDY    54  46  76 SW6       29.78R
LLOYDMINSTER   MOCLDY    57  50  77 W14       29.70R SMOKE
PRINCE ALBERT  CLOUDY    63  57  82 SW5       29.63S SMOKE
REGINA         CLOUDY    61  54  77 SE6       29.82S SMOKE
YORKTON        PTCLDY    61  57  88 S9        29.81S
N. BATTLEFORD  CLEAR     57  50  77 SW6       29.71R
LA RONGE       CLOUDY    63  59  88 N3        29.60F
SASKATOON      MOCLDY    61  50  67 SW10      29.73R
SWIFT CURRENT  CLEAR     61  46  59 SW12      29.85S HAZE
$$
NOTE: THESE ARE AUTOMATED STATIONS WITH LIMITED QUALITY CONTROL
      "FAIR" INDICATES FEW OR NO CLOUDS BELOW 12,000 FEET WITH NO
      SIGNIFICANT WEATHER AND/OR OBSTRUCTIONS TO VISIBILITY.
      SKY/WX - SKY CONDITION AND SIGNIFICANT WEATHER.
      TMP - AIR TEMPERATURE.    DP   - DEWPOINT TEMPERATURE.
      RH  - RELATIVE HUMIDITY.  PRES - PRESSURE.
      HX  - HEAT INDEX.         WCI  - WIND CHILL INDEX.
$



USA.gov is the U.S. government's official web portal to all federal, state and local government web resources and services.